User: anonymous   Login
Location: Theydon Bois
(51.6750°N, 0.1050°E)
Time: 22:58:55
(UTC+01:00)
Language:

SKYMED 2 - Orbit

View from above orbital plane
View from above orbital plane
View from above satellite
View from above satellite

Ground track
Ground track

The orbit data is extracted from the following two-line orbital elements,

1 32376U 07059A   18174.11049161 -.00000188  00000-0 -17087-4 0  9992
2 32376  97.8953 357.5934 0001383  90.0269 270.1081 14.82147338570137
Epoch (UTC): 23 June 2018 02:39:06
Eccentricity: 0.0001383
inclination: 97.8953°
perigee height: 621 km
apogee height: 623 km
right ascension of ascending node: 357.5934°
argument of perigee: 90.0269°
revolutions per day: 14.82147338
mean anomaly at epoch: 270.1081°
orbit number at epoch: 57013

The dashed part of the orbit path shows where the satellite is in the earth's shadow,  

DLR